www.pogodaiklimat.ru

Погода и климат >> Архив погоды >> Россия >> Дагестан >> Изберг


ПОГОДА в Изберге

  • Прогноз погоды в Изберге
  • Монитор погоды в Изберге
  • Климат города

АРХИВ ПОГОДЫ в Изберге

Время (UTC), дата Ветер
(напр.,м/с)
 
Видим.   Явления Облачность Т
(С)
Тd
(С)
f
(%)
Тe
(С)
Тes
(С)
Комфортность P
(гПа)
Po
(гПа)
Тmin
(С)
Tmax
(С)
R
(мм)
R24
(мм)
S
(см)
06 12.08 В 5 20 км 4/0
[Ci sp]
+28.1 +17.3 52 +32 +37 душно 1011.6 1013.6
09 12.08 В 7 20 км 1/0
[Ac lent]
+27.2 +20.2 66 +34 +38 очень
душно
1011.1 1013.1
12 12.08 В 4 20 км 3/3 600 м
[Cu hum]
+28.4 +21.7 67 +36 +41 очень
душно
1010.6 1012.6
15 12.08 ЮВ 1 20 км 6/3 600 м
[Cu hum Ci fib]
+27.6 +23.5 78 +37 +38 очень
душно
1010.4 1012.4 +28.7
18 12.08 ЮЗ 1 20 км 3/3 600 м
[Cu hum]
+25.0 +22.0 83 +32 +32 очень
душно
1011.0 1013.1
21 12.08 ЮЗ 2 20 км ясно +22.4 +20.0 86 +29 +29 очень
душно
1011.1 1013.0
00 13.08 ЮЗ 3 20 км ясно +21.2 +17.0 77 +25 +25 комфорт 1009.4 1011.5
03 13.08 ЮЗ 3 20 км ясно +22.2 +15.8 67 +26 +27 душно 1009.2 1011.3 +20.8
06 13.08 ЮВ 3 20 км ясно +27.6 +21.6 70 +35 +44 очень
душно
1009.7 1011.7 +20.8
09 13.08 В 4 20 км ясно +28.9 +20.5 61 +36 +47 очень
душно
1009.1 1011.1
12 13.08 В 6 50 км 1/1 600 м
[Cu hum]
+27.9 +21.6 69 +36 +39 очень
душно
1008.8 1010.8
15 13.08 ЮВ 2 50 км 3/1 600 м
[Cu hum Ci fib]
+27.7 +22.5 73 +36 +37 очень
душно
1008.5 1010.5 +29.4
18 13.08 ЮЗ 1 20 км ясно +25.3 +21.2 78 +32 +32 очень
душно
1008.6 1010.7
21 13.08 ЮЗ 3 20 км ясно +22.7 +18.7 78 +28 +28 душно 1008.8 1010.9
00 14.08 ЮЗ 3 20 км 3/0
[Ci fib]
+22.3 +17.8 76 +27 +27 душно 1008.2 1010.3
03 14.08 ЮЗ 3 50 км 3/0
[Ac lent Ci fib]
+22.6 +16.6 69 +27 +28 душно 1008.3 1010.4 +21.4
06 14.08 СВ 3 20 км 1/0
[Ci fib]
+27.5 +22.7 75 +36 +45 очень
душно
1008.9 1010.9
09 14.08 С 3 50 км 4/1 600 м
[Cu med, cong Ac cast Ci fib]
+28.9 +23.8 74 +40 +50 очень
душно
1009.2 1011.2
12 14.08 В 2 50 км 6/0
[Ac cast Ci fib]
+29.7 +21.2 60 +37 +43 очень
душно
1009.3 1011.3
15 14.08 С 1 50 км 9/4 600 м
[Cu hum Ac cast Ci sp]
+28.0 +20.8 65 +35 +35 очень
душно
1010.0 1012.0 +29.9
18 14.08 СЗ 2 20 км 9/4 600 м
[Cu hum Ac und]
+27.2 +21.6 71 +35 +35 очень
душно
1010.8 1012.8
21 14.08 СЗ 1 20 км 8/3 600 м
[Cu hum Ac trans Ci fib]
+25.7 +21.8 79 +33 +33 очень
душно
1011.0 1013.1
00 15.08 З 1 20 км 8/0
[Cs]
+23.1 +20.4 85 +30 +30 очень
душно
1010.8 1012.9
03 15.08 ЮЗ 3 50 км 8/0
[Cc]
+23.4 +17.7 70 +29 +30 душно 1011.1 1013.2 +22.3
06 15.08 С 3 20 км 8/4 600 м
[Cb calv Cs]
+28.3 +21.1 65 +36 +40 очень
душно
1012.0 1014.0
09 15.08 СВ 5 50 км 10/3 600 м
[Cu hum Ac trans Cs]
+28.2 +19.2 58 +34 +37 очень
душно
1011.9 1013.9
12 15.08 С 4 50 км 10/8 600 м
[Cb calv Ac cast]
+27.6 +16.6 51 +31 +32 душно 1012.9 1015.0
15 15.08 З 4 50 км {ливн. осадки} 10/8 600 м
[Cb calv Ac cast Ci fib]
+25.5 +15.9 55 +29 +29 душно 1013.9 1016.0 +29.1
18 15.08 ЮЗ 2 10 км слабый ливневой дождь 10/10 600 м
[Cb cap]
+21.9 +15.7 68 +26 +26 душно 1014.6 1016.7
21 15.08 СЗ 6-12
{13}
20 км в посл. час ливневой дождь {морось} 10/10 600 м
[Cb calv]
+21.1 +12.0 56 +23 +23 комфорт 1014.9 1017.0
00 16.08 З 5 20 км {ливн. осадки} 10/10 600 м
[Cb calv]
+19.9 +12.9 64 +22 +22 комфорт 1012.9 1015.0
03 16.08 ЮЗ 3 50 км 9/8 600 м
[Cb calv Ac cast Ci fib]
+21.0 +13.9 64 +24 +24 комфорт 1013.2 1015.3 +17.9 6
06 16.08 С 4 50 км 10/1 600 м
[Cu hum Ac und Ci fib]
+27.5 +14.0 44 +30 +33 жарко 1013.4 1015.5
09 16.08 С 6 50 км 10/1 600 м
[Cu hum Ac trans Ci fib]
+27.3 +19.8 64 +33 +36 очень
душно
1012.7 1014.7
12 16.08 С 4 50 км 10/1 600 м
[Cu med, cong Ci fib]
+28.0 +20.5 64 +35 +39 очень
душно
1012.6 1014.6
15 16.08 В 1 20 км 6/1 600 м
[Cu hum Ac trans Ci fib]
+26.8 +19.8 66 +33 +33 очень
душно
1012.5 1014.5 +28.0
18 16.08 ЮЗ 1 20 км 8/0
[Ac trans Ci fib]
+24.9 +20.5 77 +31 +31 очень
душно
1013.3 1015.3
21 16.08 ЮЗ 2 20 км 10/0
[Ac und]
+23.7 +18.8 74 +28 +28 душно 1012.7 1014.8
00 17.08 ЮЗ 2 20 км 10/0
[Ac As Ci fib]
+22.5 +18.6 79 +28 +28 душно 1011.8 1013.9
03 17.08 ЮЗ 3 50 км 9/1 600 м
[Cu hum Ac cast Ci fib]
+22.5 +15.9 66 +27 +27 душно 1012.2 1014.3 +20.8
06 17.08 ЮВ 4 50 км 10/6 600 м
[Cu hum Ac trans]
+27.7 +17.8 55 +32 +33 очень
душно
1012.7 1014.8
09 17.08 В 4 20 км 10/4 600 м
[Cu hum Ac und]
+28.2 +19.8 60 +34 +36 очень
душно
1012.8 1014.9
12 17.08 В 4 20 км 10/8 600 м
[Cu hum Ac trans]
+28.3 +21.9 68 +36 +37 очень
душно
1012.4 1014.5
15 17.08 ЮВ 5 20 км 8/4 600 м
[Cb calv Ac cast Cs]
+27.4 +21.7 71 +35 +35 очень
душно
1012.3 1014.3 +29.1
18 17.08 ЮЗ 2 20 км 10/8 600 м
[Cu hum Ac trans]
+25.6 +20.7 74 +32 +32 очень
душно
1012.6 1014.7
21 17.08 Ю 2 20 км 10/10 600 м
[Cb calv]
+24.9 +20.3 76 +31 +31 очень
душно
1011.9 1014.0
00 18.08 ЮЗ 2 20 км 8/3
[Cu hum Cs]
+22.9 +19.6 82 +29 +29 очень
душно
1011.4 1013.5
03 18.08 ЮЗ 2 20 км 10/5 600 м
[Cu hum Ac und]
+24.1 +19.1 74 +29 +29 душно 1011.3 1013.3 +22.8
06 18.08 ЮЗ 3 20 км {ливн. осадки} 10/10 600 м
[Cu hum]
+25.5 +18.4 65 +30 +30 душно 1012.1 1014.2
09 18.08 СВ 1 20 км 10/4 600 м
[Cu hum Ac und]
+27.7 +18.0 56 +32 +36 очень
душно
1012.5 1014.5
12 18.08 СВ 3 20 км 8/5 600 м
[Cu hum Ac trans]
+28.5 +22.0 68 +37 +39 очень
душно
1012.8 1014.9
15 18.08 СВ 6 20 км 10/10 600 м
[Cb calv]
+27.1 +20.9 69 +34 +34 очень
душно
1014.9 1016.9 +28.7
18 18.08 В 8
{12}
20 км {ливн. осадки} 10/10 600 м
[Cb calv]
+27.0 +16.8 54 +31 +31 душно 1016.0 1018.0
21 18.08 ЮЗ 3 20 км 9/6 600 м
[Cu hum Ac trans]
+24.6 +16.7 61 +28 +28 душно 1015.6 1017.7
00 19.08 ЮЗ 3 20 км 3/3 600 м
[Cu hum]
+22.3 +16.2 68 +26 +26 жарко 1015.1 1017.2

 

Местоположение метеостанции Изберг (Дагестан, Россия): широта 42.53 долгота 47.92 высота над уровнем моря -16 м.

В архиве по умолчанию представлена погода в Изберге за последнюю неделю. Архивные данные за месяц целиком и за предыдущие месяцы, начиная с января 2011 года, Вы можете получить, выбрав интересующий диапазон дат из раскрывающегося списка и нажав кнопку "Ввод!".

Внимание! Время в таблицах - всемирное. Для получения местного времени необходимо прибавить поправку, которая в Изберге равна 3 ч.

Смотрите также архив погоды в соседних городах и на ближайших метеорологических станциях:

Погода в Сергокале (Дагестан, Россия) (22 км)
Погода в Дербенте (Дагестан, Россия) (60 км)
Погода в Махачкале (Дагестан, Россия) (65 км)
Погода в Куппе (Дагестан, Россия) (68 км)
Погода в Буйнакске (Дагестан, Россия) (73 км)
Погода в Гунибе (Дагестан, Россия) (79 км)
Погода в Кумухе (Дагестан, Россия) (80 км)
Погода в Касумкенте (Дагестан, Россия) (98 км)
Погода в Хунзахе (Дагестан, Россия) (100 км)
Погода в Ахты (Дагестан, Россия) (119 км)

Пояснения к столбцам:

Ветер - указаны скорость ветра в м/с - средняя за 10 мин, порывы в срок и между сроками (в фигурных скобках) и направление, откуда дует ветер: С - северный, СВ - северо-восточный, В - восточный, ЮВ - юго-восточный, Ю - южный, ЮЗ - юго-западный, З - западный, СЗ - северо-западный.
Видимость - горизонтальная дальность видимости в метрах или километрах. При видимости от 1 до 10 км при отсутствии осадков обычно наблюдается дымка, при ухудшении видимости до 1 км и менее - туман. В сухую погоду видимость может ухудшаться дымом, пылью или мглою.
Явления - указаны атмосферные явления, наблюдавшиеся в срок или в последний час перед сроком; фигурными скобками обозначены явления, наблюдавшиеся между сроками (за 1-3 часа до срока); квадратными скобками обозначены град или гололедные отложения с указанием их диаметра в мм.
Облачность - указаны через наклонную черту общая и нижняя облачность в баллах и высота нижней границы облаков в метрах; квадратными скобками обозначены формы облаков: Ci - перистые, Cs - перисто-слоистые, Cc - перисто-кучевые, Ac - высококучевые, As - высокослоистые, Sc - слоисто-кучевые, Ns - слоисто-дождевые, Cu - кучевые, Cb - кучево-дождевые. Подробнее классификацию облаков см. в Атласе облаков (PDF).
T - Температура воздуха - температура, измеренная на высоте 2 м над землей.
Td - Температура точки росы - температура, при понижении до которой содержащийся в воздухе водяной пар достигнет насыщения.
f - Относительная влажность воздуха - влажноcть воздуха, измеренная на высоте 2 м над землей.
Te - Эффективная температура - температура, которую ощущает одетый по сезону человек в тени. Характеристика душности погоды. При расчете учитывается влияние влажности воздуха и скорости ветра на теплоощущения человека.
Tes - Эффективная температура на солнце - температура, которую ощущает человек, с поправкой на солнечный нагрев. Характеристика знойности погоды. Зависит от высоты солнца над горизонтом, облачности и скорости ветра. Ночью, в пасмурную погоду, а также при ветре 12 м/с и более поправка равна нулю.
P - Атмосферное давление - приведенное к уровню моря атмосферное давление.
Po - Атмосферное давление - измеренное на уровне метеостанции атмосферное давление.
Tmin - Минимальная температура - минимум температуры воздуха на высоте 2 м над землей.
Tmax - Максимальная температура - максимум температуры воздуха на высоте 2 м над землей.
R - Количество осадков - Количество выпавших осадков за период времени, мм. При наведении курсора мыши на число - период времени, за который выпало указанное количество осадков.
R24 - Количество осадков - Количество выпавших осадков за 24 часа, мм.
S - Снежный покров - Высота снежного покрова, см. При наведении курсора мыши на число - состояние снежного покрова и степень покрытия местности в баллах.